Location: �chenoz-la-M�line
(47.6009°N, 6.1354°E)
Time: 04:34:26
(UTC+00:00)

ATLAS CENTAUR R/B - Pass Details

Date: 27 January 2021
Orbit: 471 x 674 km, 64.6° (Epoch: 24 February)

Event Time Altitude Azimuth Distance (km) Brightness Sun altitude
Exits shadow 06:08:15 15° 285° (WNW) 1,364 2.7 -10.2°
Maximum altitude 06:10:03 21° 323° (NW) 1,130 2.5 -9.9°
Drops below altitude 10° 06:12:53 10° 14° (NNE) 1,654 3.7 -9.5°
Sets 06:15:27 0° 31° (NNE) 2,554 4.9 -9.0°
